Miscellaneous Local Product
Issued by NWS North Platte, NE

Home | Current Version | Previous Version | Text Only | Print | Product List | Glossary On
Versions: 1 2 3 4 5 6 7 8 9 10 11 12 13 14 15 16 17 18 19 20 21 22 23 24 25 26 27 28 29 30 31 32 33 34 35 36 37 38 39 40 41 42 43 44 45 46 47 48 49 50
000
AXUS43 KLBF 272310
MISLBF


WESTERN AND NORTH CENTRAL NEBRASKA HOURLY WEATHER ROUNDUP
NATIONAL WEATHER SERVICE NORTH PLATTE NE
600 PM CDT THU APR 27 2017

NOTE: "FAIR" INDICATES FEW OR NO CLOUDS BELOW 12,000 FEET WITH NO
SIGNIFICANT WEATHER AND/OR OBSTRUCTIONS TO VISIBILITY.

NOTE: STATIONS NOT REPORTING VARIABLES SUCH AS SKY/WEATHER OR
PRESSURE ARE PROVIDED BY RAWS AND APRS NETWORKS AND ARE NOT UNDER
NATIONAL WEATHER SERVICE QUALITY CONTROL.

...OBSERVATIONS IN AND NEAR THE EASTERN PANHANDLE OF NEBRASKA...

CITY           SKY/WX    TMP DP  RH WIND       PRES   REMARKS
PINE RIDGE     CLOUDY    48  37  65 SE13      29.59R
CHADRON        LGT RAIN  46  39  76 SE12      29.59R
ALLIANCE       LGT RAIN  44  40  85 S17       29.57R
SIDNEY         LGT RAIN  47  41  80 N8        29.55R
CRESCENT LAKE    N/A     49  36  61 E7G16       N/A
$$

...OBSERVATIONS IN NORTHERN NEBRASKA AND FAR SOUTHERN SOUTH DAKOTA...

CITY           SKY/WX    TMP DP  RH WIND       PRES   REMARKS
WINNER         FAIR      55  33  43 E7        29.66S
VALENTINE      PTSUNNY   54  29  38 E8        29.63R
THEDFORD       LGT RAIN  51  37  58 E14       29.62R
AINSWORTH      MOSUNNY   54  35  49 E9G17     29.64R
O`NEILL        SUNNY     53  30  41 CALM      29.67S
ORD            CLOUDY    52  34  50 E8        29.64S
BROKEN BOW     CLOUDY    51  35  54 SE14G23   29.63R
VALENTINE NWR    N/A     53  33  46 E10G17      N/A
HALSEY           N/A     51  34  53 E8G15       N/A
BUTTE            N/A     50  33  51 E3G13       N/A
CHAMBERS         N/A     57  36  45 E3          N/A
EWING            N/A     53  38  56 E3          N/A
$$

...OBSERVATIONS IN SOUTHWEST NEBRASKA AND FAR NORTHEAST COLORADO...

CITY           SKY/WX    TMP DP  RH WIND       PRES   REMARKS
HOLYOKE        LGT RAIN  46  41  81 E14       29.53R
IMPERIAL       LGT RAIN  47  40  76 E17G25    29.53S
OGALLALA       CLOUDY    54  36  50 E18       29.56R
NORTH PLATTE   CLOUDY    51  38  60 E17       29.60R
MCCOOK         LGT RAIN  51  43  74 SE14      29.56S
LEXINGTON      LGT RAIN  53  37  54 E13G22    29.61S
STAPLETON        N/A     48  37  65 MISG        N/A
GOTHENBURG       N/A     51  34  53 E13         N/A
CALLAWAY         N/A     53  39  60 SE16        N/A
$$

...OBSERVATIONS IN CENTRAL LINCOLN COUNTY AREA...

CITY           SKY/WX    TMP DP  RH WIND       PRES   REMARKS
N.P. AIRPORT   CLOUDY    51  38  60 E17       29.60R
N.P. DOWNTOWN    N/A     51  39  63 E8G18       N/A
N.P. SOUTHEAST   N/A     51  38  61 E7G14       N/A
N.P. HILLCREST   N/A     50  38  62 SE18G26     N/A
$$

...SOME OBSERVATIONS FROM AROUND THE REGION...

CITY           SKY/WX    TMP DP  RH WIND       PRES   REMARKS
DENVER         CLOUDY    53  34  48 N17G23    29.51S
LIMON          CLOUDY    43  40  89 N26G33    29.51R
ASPEN          SNOW      30  29  96 N9G20     29.68R VSB 1/2 WCI  22
LARAMIE        CLOUDY    43  20  39 W20G29    29.55S
CASPER         LGT RAIN  38  35  89 N9        29.56S WCI  31
CHEYENNE       CLOUDY    45  33  63 CALM      29.52F
SCOTTSBLUFF    LGT RAIN  44  40  85 N8        29.55F FOG
GRAND ISLAND   CLOUDY    51  42  71 E6        29.67R
OMAHA          PTSUNNY   58  32  37 W6        29.70R
SIOUX FALLS    MOSUNNY   51  34  52 N12       29.68R
PIERRE         SUNNY     52  30  43 E6        29.67R
RAPID CITY     CLOUDY    47  33  58 E10       29.64R
BISMARCK       SUNNY     53  26  35 N5        29.71S
KANSAS CITY    CLOUDY    58  39  49 SW9       29.73R
HILL CITY      CLOUDY    51  45  79 E15       29.58F
WICHITA        CLOUDY    57  48  72 E18       29.63F
DODGE CITY     SUNNY     60  42  51 SE24G36   29.49F
OKLAHOMA CITY  PTSUNNY   65  48  54 SE16      29.60R
DALLAS         MOSUNNY   76  50  40 S15       29.59F
AMARILLO       PTSUNNY   76  33  21 W17G30    29.44F
$$




USA.gov is the U.S. government's official web portal to all federal, state and local government web resources and services.